Weather History for Charleroi, Belgium

Change the Weather History Date:

Saturday, December 21, 2013

  Actual Average Record
Temperature  
Mean Temperature 40 °F -  
Max Temperature 43 °F 40 °F 48 °F (2008)
Min Temperature 37 °F 31 °F 17 °F (2007)
Degree Days  
Heating Degree Days 24    
Moisture  
Dew Point 35 °F    
Average Humidity 77    
Maximum Humidity 93    
Minimum Humidity 52    
Precipitation  
Precipitation 0.08 in - - ()
Sea Level Pressure  
Sea Level Pressure 30.24 in    
Wind  
Wind Speed 17 mph ()    
Max Wind Speed 27 mph    
Max Gust Speed 44 mph    
Visibility 9.6 miles    
Events Rain    
Averages and records for this station are not official NWS values.
T = Trace of Precipitation, MM = Missing Value Source: Averaged Metar Reports

Daily Weather History Graph

Daily Weather History Graph

Search for Another Location

Airport:

Trip Planner

Search our weather history database for the weather conditions in past years. The results will help you decide how hot, cold, wet, or windy it might be!

Date:

Astronomy

Dec. 21, 2013 Rise Set
Actual Time 8:40 AM CET 4:40 PM CET
Civil Twilight 8:01 AM CET 5:19 PM CET
Nautical Twilight 7:19 AM CET 6:01 PM CET
Astronomical Twilight 6:39 AM CET 6:41 PM CET
Moon 9:05 PM CET (12/21) 10:37 AM CET (12/21)
Length of Visible Light 9h 18m
Length of Day
8h 00m
Waning Gibbous, 86% of the Moon is Illuminated
Dec 21
Waning Gibbous
Dec 25
Last Quarter
Jan 1
New
Jan 8
First Quarter
Jan 16
Full

Hourly Weather History & Observations

Time (CET) Temp. Windchill Dew Point Humidity Pressure Visibility Wind Dir Wind Speed Gust Speed Precip Events Conditions
12:00 AM 39 °F - 36 °F 84% 30.41 in 11 mi SSW 15.7 mph - -   Clear
12:20 AM 39.2 °F 29.8 °F 35.6 °F 87% 30.36 in - SSW 18.4 mph - N/A   Clear
12:50 AM 39.2 °F 30.5 °F 35.6 °F 87% 30.36 in - SSW 16.1 mph - N/A   Clear
1:00 AM 39 °F - 35 °F 82% 30.40 in 11 mi SSW 15.7 mph - -   Clear
1:20 AM 39.2 °F 30.2 °F 35.6 °F 87% 30.36 in - SSW 17.3 mph - N/A   Clear
1:50 AM 39.2 °F 29.8 °F 35.6 °F 87% 30.36 in - SSW 18.4 mph 31.1 mph N/A   Clear
2:00 AM 40 °F - 36 °F 79% 30.39 in 11 mi SSW 17.9 mph - -   Partly Cloudy
2:20 AM 39.2 °F 30.2 °F 35.6 °F 87% 30.36 in - SSW 17.3 mph - N/A   Clear
2:50 AM 39.2 °F 29.8 °F 35.6 °F 87% 30.36 in - SSW 18.4 mph - N/A   Clear
3:00 AM 40 °F - 36 °F 78% 30.38 in 11 mi SSW 17.9 mph - -   Partly Cloudy
3:20 AM 41.0 °F 31.9 °F 35.6 °F 81% 30.33 in - SSW 19.6 mph - N/A   Clear
3:50 AM 41.0 °F 32.5 °F 35.6 °F 81% 30.33 in - SSW 17.3 mph - N/A   Clear
4:00 AM 41 °F - 35 °F 73% 30.37 in 11 mi SSW 17.9 mph - -   Scattered Clouds
4:20 AM 41.0 °F 32.5 °F 35.6 °F 81% 30.33 in - SSW 17.3 mph - N/A   Clear
4:50 AM 41.0 °F 31.9 °F 35.6 °F 81% 30.33 in - South 19.6 mph - N/A   Clear
5:00 AM 40 °F - 35 °F 77% 30.36 in 11 mi South 20.1 mph - -   Partly Cloudy
5:20 AM 41.0 °F 31.9 °F 35.6 °F 81% 30.33 in - SSW 19.6 mph - N/A   Clear
5:50 AM 41.0 °F 32.5 °F 35.6 °F 81% 30.30 in - SSW 17.3 mph - N/A   Clear
6:00 AM 41 °F - 35 °F 73% 30.35 in 12 mi SSW 17.9 mph - -   Partly Cloudy
6:20 AM 41.0 °F 32.5 °F 35.6 °F 81% 30.30 in - SSW 17.3 mph - N/A   Clear
6:50 AM 41.0 °F 31.6 °F 35.6 °F 81% 30.30 in - SSW 20.7 mph - N/A   Clear
7:00 AM 41 °F - 35 °F 72% 30.33 in 12 mi SSW 20.1 mph - -   Partly Cloudy
7:20 AM 41.0 °F 31.9 °F 35.6 °F 81% 30.30 in - SSW 19.6 mph - N/A   Clear
7:50 AM 41.0 °F 31.6 °F 35.6 °F 81% 30.30 in - SSW 20.7 mph - N/A   Clear
8:00 AM 40 °F - 35 °F 75% 30.33 in 16 mi SSW 20.1 mph - -   Scattered Clouds
8:20 AM 41.0 °F 31.6 °F 35.6 °F 81% 30.30 in - SSW 20.7 mph 32.2 mph N/A   Clear
8:50 AM 41.0 °F 31.9 °F 33.8 °F 76% 30.30 in - SSW 19.6 mph - N/A   Clear
9:00 AM 40 °F - 35 °F 75% 30.33 in 16 mi SSW 20.1 mph - -   Scattered Clouds
9:20 AM 41.0 °F 31.9 °F 35.6 °F 81% 30.30 in - SSW 19.6 mph - N/A   Clear
9:50 AM 41.0 °F 32.2 °F 35.6 °F 81% 30.27 in - SSW 18.4 mph - N/A   Clear
10:00 AM 41 °F - 35 °F 72% 30.31 in 16 mi SSW 17.9 mph - -   Scattered Clouds
10:20 AM 41.0 °F 31.6 °F 35.6 °F 81% 30.27 in - SSW 20.7 mph - N/A   Clear
10:50 AM 41.0 °F 31.4 °F 33.8 °F 76% 30.27 in 6.2 mi SSW 21.9 mph - N/A   Partly Cloudy
11:00 AM 41 °F - 35 °F 70% 30.32 in 16 mi SSW 22.4 mph - -   Scattered Clouds
11:20 AM 41.0 °F 31.6 °F 33.8 °F 76% 30.27 in 6.2 mi SSW 20.7 mph 32.2 mph N/A   Partly Cloudy
11:50 AM 42.8 °F 34.8 °F 33.8 °F 70% 30.27 in 6.2 mi SSW 17.3 mph - N/A   Partly Cloudy
12:00 PM 42 °F - 35 °F 66% 30.30 in 19 mi SSW 17.9 mph - -   Scattered Clouds
12:20 PM 42.8 °F 34.5 °F 35.6 °F 76% 30.24 in 6.2 mi SSW 18.4 mph - N/A   Partly Cloudy
12:50 PM 42.8 °F 35.1 °F 35.6 °F 76% 30.24 in 6.2 mi SSW 16.1 mph - N/A   Partly Cloudy
1:00 PM 43 °F - 36 °F 67% 30.26 in 19 mi SSW 15.7 mph - -   Scattered Clouds
1:20 PM 42.8 °F 34.5 °F 35.6 °F 76% 30.21 in 6.2 mi SSW 18.4 mph - N/A   Partly Cloudy
1:50 PM 42.8 °F 34.5 °F 35.6 °F 76% 30.21 in 6.2 mi SSW 18.4 mph - N/A   Partly Cloudy
2:00 PM 43 °F - 36 °F 68% 30.24 in 19 mi SSW 17.9 mph - -   Scattered Clouds
2:20 PM 42.8 °F 34.5 °F 35.6 °F 76% 30.21 in 6.2 mi SSW 18.4 mph - N/A   Partly Cloudy
2:50 PM 42.8 °F 34.5 °F 35.6 °F 76% 30.18 in 6.2 mi SSW 18.4 mph - N/A   Partly Cloudy
3:00 PM 43 °F - 36 °F 68% 30.22 in 19 mi SSW 17.9 mph - -   Scattered Clouds
3:20 PM 42.8 °F 34.3 °F 35.6 °F 76% 30.18 in 6.2 mi SSW 19.6 mph - N/A   Partly Cloudy
3:50 PM 42.8 °F 34.3 °F 35.6 °F 76% 30.18 in 6.2 mi SSW 19.6 mph - N/A   Partly Cloudy
4:00 PM 42 °F - 35 °F 68% 30.21 in 22 mi SSW 20.1 mph - -   Scattered Clouds
4:20 PM 41.0 °F 31.6 °F 33.8 °F 76% 30.18 in 6.2 mi South 20.7 mph - N/A   Partly Cloudy
4:50 PM 41.0 °F 31.9 °F 33.8 °F 76% 30.15 in 6.2 mi SSW 19.6 mph - N/A   Partly Cloudy
5:00 PM 41 °F - 35 °F 70% 30.19 in 22 mi SSW 20.1 mph - -   Mostly Cloudy
5:20 PM 41.0 °F 31.9 °F 35.6 °F 81% 30.15 in 6.2 mi South 19.6 mph 31.1 mph N/A   Partly Cloudy
5:50 PM 41.0 °F 32.2 °F 33.8 °F 76% 30.12 in 6.2 mi South 18.4 mph - N/A   Partly Cloudy
6:00 PM 41 °F - 34 °F 69% 30.17 in 22 mi South 17.9 mph - -   Scattered Clouds
6:20 PM 41.0 °F 32.8 °F 33.8 °F 76% 30.12 in 6.2 mi South 16.1 mph - N/A   Partly Cloudy
6:50 PM 41.0 °F 32.8 °F 33.8 °F 76% 30.09 in - South 16.1 mph - N/A   Clear
7:00 PM 42 °F - 34 °F 63% 30.14 in 22 mi South 15.7 mph - -   Mostly Cloudy
7:20 PM 41.0 °F 32.5 °F 32.0 °F 70% 30.09 in - South 17.3 mph 31.1 mph N/A   Clear
7:50 PM 41.0 °F 32.5 °F 30.2 °F 65% 30.09 in - SSW 17.3 mph 29.9 mph N/A   Clear
8:00 PM 42 °F - 30 °F 52% 30.11 in 22 mi South 17.9 mph - -   Mostly Cloudy
9:00 PM 40 °F - 33 °F 68% 30.09 in 22 mi SSW 24.6 mph - -   Mostly Cloudy
9:20 PM 39.2 °F 28.7 °F 33.8 °F 81% 30.06 in 6.2 mi SSW 23.0 mph 34.5 mph N/A Rain Light Rain
9:50 PM 41.0 °F 30.9 °F 33.8 °F 76% 30.06 in 6.2 mi SSW 24.2 mph 35.7 mph N/A Rain Light Rain
10:00 PM 40 °F - 35 °F 74% 30.09 in 9 mi SSW 24.6 mph - - Rain Light Rain
10:20 PM 39.2 °F 28.5 °F 35.6 °F 87% 30.04 in 6.2 mi SSW 24.2 mph 35.7 mph N/A Rain Light Rain
10:50 PM 39.2 °F 28.0 °F 37.4 °F 93% 30.06 in 6.2 mi South 26.5 mph - N/A Rain Light Rain
11:00 PM 39 °F - 37 °F 88% 30.09 in 7 mi South 26.8 mph - -   Mostly Cloudy
11:20 PM 39.2 °F 28.5 °F 37.4 °F 93% 30.04 in 6.2 mi SSW 24.2 mph 43.7 mph N/A Rain Light Rain
11:50 PM 37.4 °F 26.4 °F 35.6 °F 93% 30.04 in 6.2 mi SSW 23.0 mph - N/A Rain Light Rain